Change the Weather History Date:

Thursday, November 7, 2013

  Actual Average Record
Temperature  
Mean Temperature 31 °F 37 °F  
Max Temperature 37 °F 45 °F 68 °F (1949)
Min Temperature 25 °F 29 °F -1 °F (1991)
Degree Days  
Heating Degree Days 34 28  
Month to date heating degree days 192 187  
Since 1 July heating degree days 972 1071  
Cooling Degree Days 0 0  
Month to date cooling degree days 0 0  
Year to date cooling degree days 506 407  
Moisture  
Dew Point 22 °F    
Average Humidity 70    
Maximum Humidity 92    
Minimum Humidity 48    
Precipitation  
Precipitation 0.00 in 0.07 in 1.32 in (1946)
Month to date precipitation 1.13 0.50  
Year to date precipitation 35.82 29.55  
Snow  
Snow 0.00 in 0.10 in 1.50 in (1988)
Month to date snowfall 0.0 0.8  
Since 1 July snowfall T 2.2  
Snow Depth 0.00 in    
Sea Level Pressure  
Sea Level Pressure 30.18 in    
Wind  
Wind Speed 9 mph (WNW)    
Max Wind Speed 16 mph    
Max Gust Speed 21 mph    
Visibility 9 miles    
Events      
T = Trace of Precipitation, MM = Missing Value Source: NWS Daily Summary

Daily Weather History Graph

Daily Weather History Graph

Search for Another Location

Airport or City:

Trip Planner

Search our weather history database for the weather conditions in past years. The results will help you decide how hot, cold, wet, or windy it might be!

Date:

Astronomy

Nov. 07, 2013 Rise Set
Actual Time 6:45 AM CST 4:38 PM CST
Civil Twilight 6:14 AM CST 5:09 PM CST
Nautical Twilight 5:39 AM CST 5:44 PM CST
Astronomical Twilight 5:04 AM CST 6:18 PM CST
Moon 10:56 AM CST (11/7) 8:48 PM CST (11/7)
Length of Visible Light 10h 55m
Length of Day
9h 53m
Waxing Crescent, 23% of the Moon is Illuminated
Nov 7
Waxing Crescent
Nov 9
First Quarter
Nov 17
Full
Nov 25
Last Quarter
Dec 2
New

Hourly Weather History & Observations

Time (CST) Temp. Windchill Dew Point Humidity Pressure Visibility Wind Dir Wind Speed Gust Speed Precip Events Conditions
12:54 AM 26.1 °F 18.4 °F 21.0 °F 81% 30.16 in 10.0 mi West 6.9 mph - N/A   Mostly Cloudy
1:54 AM 28.0 °F 20.8 °F 21.9 °F 78% 30.16 in 10.0 mi WNW 6.9 mph - N/A   Mostly Cloudy
2:54 AM 26.1 °F 19.4 °F 21.0 °F 81% 30.15 in 10.0 mi West 5.8 mph - N/A   Clear
3:54 AM 26.1 °F 20.5 °F 21.9 °F 84% 30.15 in 10.0 mi WNW 4.6 mph - N/A   Clear
4:54 AM 26.1 °F 19.4 °F 21.9 °F 84% 30.16 in 10.0 mi WNW 5.8 mph - N/A   Clear
5:54 AM 26.1 °F 18.4 °F 23.0 °F 88% 30.17 in 6.0 mi WNW 6.9 mph - N/A   Clear
6:54 AM 25.0 °F 17.1 °F 23.0 °F 92% 30.18 in 4.0 mi WNW 6.9 mph - N/A   Clear
7:54 AM 27.0 °F 19.5 °F 24.1 °F 89% 30.19 in 4.0 mi WNW 6.9 mph - N/A   Clear
8:54 AM 28.9 °F 21.9 °F 23.0 °F 78% 30.20 in 8.0 mi NW 6.9 mph - N/A   Clear
9:54 AM 33.1 °F 25.5 °F 21.0 °F 61% 30.19 in 10.0 mi NW 9.2 mph - N/A   Clear
10:54 AM 35.1 °F 25.9 °F 19.9 °F 54% 30.19 in 10.0 mi WNW 13.8 mph - N/A   Clear
11:54 AM 37.0 °F 28.9 °F 19.9 °F 50% 30.18 in 10.0 mi WNW 12.7 mph - N/A   Partly Cloudy
12:54 PM 36.0 °F 28.5 °F 21.0 °F 55% 30.17 in 10.0 mi West 10.4 mph - N/A   Overcast
1:54 PM 36.0 °F 28.0 °F 21.0 °F 55% 30.16 in 10.0 mi West 11.5 mph - N/A   Overcast
2:54 PM 35.1 °F 25.2 °F 19.9 °F 54% 30.17 in 10.0 mi WNW 16.1 mph - N/A   Scattered Clouds
3:54 PM 33.1 °F 24.4 °F 21.9 °F 64% 30.17 in 10.0 mi West 11.5 mph - N/A   Clear
4:54 PM 30.9 °F 22.2 °F 23.0 °F 72% 30.19 in 10.0 mi West 10.4 mph - N/A   Scattered Clouds
5:54 PM 30.9 °F 22.2 °F 24.1 °F 76% 30.20 in 10.0 mi WNW 10.4 mph - N/A   Overcast
6:54 PM 30.0 °F 21.7 °F 24.1 °F 79% 30.21 in 10.0 mi WNW 9.2 mph - N/A   Mostly Cloudy
7:54 PM 28.9 °F 21.9 °F 24.1 °F 82% 30.21 in 10.0 mi WNW 6.9 mph - N/A   Clear
8:54 PM 28.9 °F 21.1 °F 24.1 °F 82% 30.21 in 10.0 mi WNW 8.1 mph - N/A   Clear
9:54 PM 28.0 °F 20.8 °F 24.1 °F 85% 30.22 in 9.0 mi WNW 6.9 mph - N/A   Clear
10:54 PM 28.0 °F 21.7 °F 25.0 °F 88% 30.22 in 6.0 mi WNW 5.8 mph - N/A   Partly Cloudy
11:54 PM 28.0 °F 20.8 °F 25.0 °F 88% 30.22 in 5.0 mi WNW 6.9 mph - N/A   Clear